Savoy, IL

3:01 AM CST on January 23, 2017 (GMT -0600)
Univ Of Illinois-Willard

Weather History for KCMI - September, 2013

Change the Weather History Date:

Sunday, September 29, 2013

  Actual Average Record
Temperature  
Mean Temperature 66 °F 60 °F  
Max Temperature 75 °F 73 °F 87 °F (2002)
Min Temperature 56 °F 47 °F 35 °F (2003)
Degree Days  
Heating Degree Days 0 7  
Month to date heating degree days 28 76  
Since 1 July heating degree days 43 85  
Cooling Degree Days 1 2  
Month to date cooling degree days 169 98  
Year to date cooling degree days 1022 925  
Growing Degree Days 15 (Base 50)    
Moisture  
Dew Point 53 °F    
Average Humidity 66    
Maximum Humidity 97    
Minimum Humidity 35    
Precipitation  
Precipitation 0.08 in 0.10 in 0.43 in (1948)
Month to date precipitation 0.55 3.18  
Year to date precipitation 24.76 30.46  
Sea Level Pressure  
Sea Level Pressure 30.01 in    
Wind  
Wind Speed 7 mph (NNW)    
Max Wind Speed 16 mph    
Max Gust Speed 25 mph    
Visibility 10 miles    
Events Rain    
T = Trace of Precipitation, MM = Missing Value Source: NWS Daily Summary

Daily Weather History Graph

Daily Weather History Graph

Search for Another Location

Airport or City:

Trip Planner

Search our weather history database for the weather conditions in past years. The results will help you decide how hot, cold, wet, or windy it might be!

Date:

Astronomy

Sep. 29, 2013 Rise Set
Actual Time 6:47 AM CDT 6:38 PM CDT
Civil Twilight 6:20 AM CDT 7:05 PM CDT
Nautical Twilight 5:49 AM CDT 7:36 PM CDT
Astronomical Twilight 5:17 AM CDT 8:08 PM CDT
Moon 1:28 AM CDT (9/29) 3:34 PM CDT (9/29)
Length of Visible Light 12h 44m
Length of Day
11h 50m
Waning Crescent, 27% of the Moon is Illuminated
Sep 29
Waning Crescent
Oct 4
New
Oct 11
First Quarter
Oct 18
Full
Oct 26
Last Quarter

Hourly Weather History & Observations

Time (CDT) Temp. Dew Point Humidity Pressure Visibility Wind Dir Wind Speed Gust Speed Precip Events Conditions
12:53 AM 71.1 °F 57.0 °F 61% 29.98 in 10.0 mi South 11.5 mph - 0.00 in   Overcast
1:53 AM 70.0 °F 57.0 °F 63% 29.97 in 10.0 mi South 8.1 mph - N/A   Overcast
2:53 AM 64.9 °F 61.0 °F 87% 29.98 in 10.0 mi SW 8.1 mph - 0.01 in Rain Light Rain
3:26 AM 64.4 °F 62.6 °F 94% 29.99 in 10.0 mi West 8.1 mph - 0.02 in Rain Rain
3:53 AM 62.1 °F 61.0 °F 96% 29.98 in 10.0 mi NW 11.5 mph 17.3 mph 0.04 in Rain Light Rain
4:44 AM 60.8 °F 59.0 °F 94% 30.00 in 10.0 mi NNW 9.2 mph 18.4 mph 0.02 in Rain Light Rain
4:53 AM 60.1 °F 59.0 °F 96% 29.99 in 10.0 mi NNW 10.4 mph - 0.02 in Rain Light Rain
5:09 AM 60.8 °F 57.2 °F 88% 30.01 in 10.0 mi North 16.1 mph 25.3 mph 0.01 in Rain Light Rain
5:20 AM 57.2 °F 55.4 °F 94% 30.01 in 10.0 mi North 9.2 mph - 0.01 in   Overcast
5:53 AM 57.9 °F 55.0 °F 90% 30.01 in 10.0 mi NNW 8.1 mph - 0.01 in   Overcast
6:30 AM 59.0 °F 55.4 °F 88% 30.03 in 10.0 mi NNW 6.9 mph - N/A   Overcast
6:53 AM 57.9 °F 55.0 °F 90% 30.02 in 10.0 mi NNW 8.1 mph - N/A   Overcast
7:32 AM 57.2 °F 55.4 °F 94% 30.04 in 10.0 mi NNW 6.9 mph - N/A   Mostly Cloudy
7:53 AM 57.9 °F 54.0 °F 87% 30.04 in 10.0 mi North 4.6 mph - N/A   Mostly Cloudy
8:15 AM 57.2 °F 53.6 °F 88% 30.05 in 10.0 mi NNW 8.1 mph - N/A   Scattered Clouds
8:53 AM 61.0 °F 55.0 °F 81% 30.04 in 10.0 mi North 10.4 mph - N/A   Partly Cloudy
9:53 AM 64.0 °F 53.1 °F 67% 30.04 in 10.0 mi North 10.4 mph 17.3 mph N/A   Clear
10:53 AM 66.9 °F 53.1 °F 61% 30.04 in 10.0 mi Variable 5.8 mph - N/A   Partly Cloudy
11:53 AM 70.0 °F 53.1 °F 55% 30.04 in 10.0 mi Variable 6.9 mph - N/A   Clear
12:53 PM 72.0 °F 50.0 °F 46% 30.03 in 10.0 mi NNW 6.9 mph - N/A   Clear
1:53 PM 72.0 °F 48.9 °F 44% 30.00 in 10.0 mi NNW 5.8 mph - N/A   Clear
2:53 PM 73.9 °F 48.0 °F 40% 29.99 in 10.0 mi NW 8.1 mph - N/A   Clear
3:53 PM 73.9 °F 46.9 °F 38% 29.99 in 10.0 mi Variable 3.5 mph - N/A   Clear
4:53 PM 73.0 °F 45.0 °F 37% 29.98 in 10.0 mi Calm Calm - N/A   Clear
5:53 PM 71.1 °F 46.0 °F 41% 29.99 in 10.0 mi North 4.6 mph - N/A   Clear
6:53 PM 63.0 °F 46.0 °F 54% 29.99 in 10.0 mi North 3.5 mph - N/A   Clear
7:53 PM 60.1 °F 46.9 °F 62% 30.00 in 10.0 mi North 3.5 mph - N/A   Clear
8:53 PM 57.0 °F 48.0 °F 72% 30.00 in 10.0 mi North 5.8 mph - N/A   Clear
9:53 PM 60.1 °F 48.0 °F 64% 30.00 in 10.0 mi NE 6.9 mph - N/A   Clear
10:53 PM 57.0 °F 48.9 °F 74% 30.01 in 10.0 mi ENE 5.8 mph - N/A   Clear
11:53 PM 57.0 °F 50.0 °F 77% 30.00 in 10.0 mi NE 8.1 mph - N/A   Clear